Météo par heure à Kysyndy

Ce jour, 24 Juillet, Samedi

Heure Température Précipitation Vent Pression Humidité
00:00 +18°C° 0 mm 1 m/s 741 mmHg 80%
01:00 +16°C° 0 mm 1 m/s 741 mmHg 81%
02:00 +16°C° 0 mm 1 m/s 741 mmHg 83%
03:00 +15°C° 0 mm 1 m/s 741 mmHg 84%
04:00 +15°C° 0 mm 1 m/s 742 mmHg 86%
05:00 +16°C° 0 mm 1 m/s 742 mmHg 80%
06:00 +19°C° 0 mm 1 m/s 742 mmHg 75%
07:00 +20°C° 0 mm 1 m/s 742 mmHg 69%
08:00 +22°C° 0 mm 1 m/s 743 mmHg 61%
09:00 +23°C° 0 mm 1 m/s 743 mmHg 53%
10:00 +25°C° 0 mm 2 m/s 743 mmHg 44%
11:00 +26°C° 0 mm 2 m/s 743 mmHg 41%
12:00 +27°C° 0 mm 2 m/s 743 mmHg 37%
13:00 +28°C° 0 mm 2 m/s 743 mmHg 34%
14:00 +27°C° 0 mm 2 m/s 743 mmHg 37%
15:00 +26°C° 0 mm 2 m/s 743 mmHg 40%
16:00 +25°C° 0 mm 2 m/s 743 mmHg 44%
17:00 +25°C° 0 mm 2 m/s 744 mmHg 46%
18:00 +24°C° 0 mm 1 m/s 744 mmHg 48%
19:00 +23°C° 0 mm 1 m/s 744 mmHg 50%
20:00 +21°C° 0 mm 1 m/s 744 mmHg 55%
21:00 +20°C° 0 mm 1 m/s 745 mmHg 59%
22:00 +18°C° 0 mm 1 m/s 745 mmHg 63%
23:00 +18°C° 0 mm 1 m/s 746 mmHg 67%

Demain, 25 Juillet, Dimanche

Heure Température Précipitation Vent Pression Humidité
00:00 +16°C° 0 mm 1 m/s 746 mmHg 72%
01:00 +15°C° 0 mm 1 m/s 746 mmHg 77%
02:00 +15°C° 0.1 mm 1 m/s 747 mmHg 82%
03:00 +14°C° 0.1 mm 1 m/s 747 mmHg 88%
04:00 +13°C° 0.1 mm 1 m/s 747 mmHg 94%
05:00 +14°C° 0 mm 2 m/s 748 mmHg 91%
06:00 +15°C° 0 mm 2 m/s 749 mmHg 88%
07:00 +16°C° 0 mm 3 m/s 749 mmHg 85%
08:00 +17°C° 0 mm 3 m/s 750 mmHg 74%
09:00 +18°C° 0 mm 3 m/s 750 mmHg 64%
10:00 +20°C° 0 mm 4 m/s 750 mmHg 53%
11:00 +20°C° 0 mm 4 m/s 750 mmHg 49%
12:00 +21°C° 0 mm 4 m/s 751 mmHg 44%
13:00 +22°C° 0 mm 4 m/s 751 mmHg 40%
14:00 +22°C° 0 mm 4 m/s 751 mmHg 36%
15:00 +23°C° 0 mm 4 m/s 751 mmHg 33%
16:00 +23°C° 0 mm 4 m/s 751 mmHg 29%
17:00 +22°C° 0 mm 4 m/s 752 mmHg 35%
18:00 +21°C° 0 mm 3 m/s 752 mmHg 40%
19:00 +20°C° 0 mm 2 m/s 752 mmHg 45%
20:00 +17°C° 0 mm 2 m/s 752 mmHg 50%
21:00 +15°C° 0 mm 2 m/s 753 mmHg 55%
22:00 +13°C° 0 mm 1 m/s 753 mmHg 60%
23:00 +12°C° 0 mm 1 m/s 754 mmHg 62%

Après-demain, 26 Juillet, Lundi

Heure Température Précipitation Vent Pression Humidité
00:00 +12°C° 0 mm 1 m/s 754 mmHg 65%
01:00 +11°C° 0 mm 1 m/s 754 mmHg 67%
02:00 +10°C° 0 mm 0 m/s 755 mmHg 69%
03:00 +9°C° 0 mm 0 m/s 755 mmHg 72%
04:00 +9°C° 0 mm 0 m/s 755 mmHg 74%
05:00 +10°C° 0 mm 0 m/s 755 mmHg 68%
06:00 +12°C° 0 mm 0 m/s 756 mmHg 62%
07:00 +14°C° 0 mm 0 m/s 756 mmHg 57%
08:00 +16°C° 0 mm 1 m/s 756 mmHg 50%
09:00 +19°C° 0 mm 1 m/s 756 mmHg 43%
10:00 +20°C° 0 mm 2 m/s 756 mmHg 36%
11:00 +21°C° 0 mm 2 m/s 755 mmHg 35%
12:00 +21°C° 0 mm 3 m/s 755 mmHg 34%
13:00 +22°C° 0 mm 3 m/s 755 mmHg 32%
14:00 +22°C° 0 mm 3 m/s 755 mmHg 32%
15:00 +22°C° 0 mm 3 m/s 755 mmHg 32%
16:00 +23°C° 0 mm 4 m/s 754 mmHg 31%
17:00 +22°C° 0 mm 3 m/s 754 mmHg 38%
18:00 +21°C° 0 mm 2 m/s 754 mmHg 44%
19:00 +21°C° 0 mm 1 m/s 754 mmHg 51%
20:00 +19°C° 0 mm 1 m/s 754 mmHg 52%
21:00 +18°C° 0 mm 1 m/s 754 mmHg 53%
22:00 +16°C° 0 mm 1 m/s 754 mmHg 55%
23:00 +16°C° 0 mm 1 m/s 754 mmHg 55%

27 Juillet, Mardi

Heure Température Précipitation Vent Pression Humidité
00:00 +15°C° 0 mm 1 m/s 754 mmHg 56%
01:00 +15°C° 0 mm 1 m/s 754 mmHg 56%
02:00 +14°C° 0 mm 1 m/s 754 mmHg 60%
03:00 +13°C° 0 mm 1 m/s 754 mmHg 63%
04:00 +12°C° 0 mm 1 m/s 754 mmHg 67%
05:00 +14°C° 0 mm 1 m/s 754 mmHg 64%
06:00 +15°C° 0 mm 1 m/s 754 mmHg 61%
07:00 +16°C° 0 mm 2 m/s 753 mmHg 58%
08:00 +18°C° 0 mm 2 m/s 753 mmHg 53%
09:00 +20°C° 0 mm 2 m/s 753 mmHg 48%
10:00 +22°C° 0 mm 3 m/s 752 mmHg 42%
11:00 +22°C° 0 mm 3 m/s 752 mmHg 41%
12:00 +24°C° 0 mm 3 m/s 752 mmHg 40%
13:00 +25°C° 0 mm 3 m/s 751 mmHg 38%
14:00 +25°C° 0 mm 3 m/s 751 mmHg 39%
15:00 +25°C° 0 mm 4 m/s 750 mmHg 41%
16:00 +23°C° 0 mm 4 m/s 750 mmHg 42%
17:00 +22°C° 0.2 mm 3 m/s 750 mmHg 53%
18:00 +20°C° 0.2 mm 2 m/s 750 mmHg 63%
19:00 +19°C° 0.2 mm 1 m/s 750 mmHg 74%
20:00 +18°C° 0 mm 1 m/s 750 mmHg 75%
21:00 +16°C° 0 mm 1 m/s 750 mmHg 76%
22:00 +15°C° 0 mm 1 m/s 750 mmHg 78%
23:00 +14°C° 0 mm 1 m/s 751 mmHg 79%

28 Juillet, Mercredi

Heure Température Précipitation Vent Pression Humidité
00:00 +13°C° 0 mm 1 m/s 751 mmHg 80%
01:00 +11°C° 0 mm 0 m/s 751 mmHg 82%
02:00 +11°C° 0 mm 0 m/s 751 mmHg 83%
03:00 +10°C° 0 mm 0 m/s 751 mmHg 84%
04:00 +10°C° 0 mm 0 m/s 751 mmHg 85%
05:00 +11°C° 0 mm 0 m/s 751 mmHg 81%
06:00 +12°C° 0 mm 0 m/s 752 mmHg 77%
07:00 +14°C° 0 mm 0 m/s 752 mmHg 72%
08:00 +18°C° 0 mm 1 m/s 752 mmHg 62%
09:00 +20°C° 0 mm 1 m/s 752 mmHg 52%
10:00 +21°C° 0 mm 2 m/s 751 mmHg 41%
11:00 +23°C° 0 mm 2 m/s 751 mmHg 38%
12:00 +24°C° 0 mm 2 m/s 751 mmHg 34%
13:00 +25°C° 0 mm 2 m/s 750 mmHg 30%
14:00 +26°C° 0 mm 2 m/s 750 mmHg 29%
15:00 +26°C° 0 mm 2 m/s 750 mmHg 27%
16:00 +26°C° 0 mm 2 m/s 749 mmHg 26%
17:00 +25°C° 0 mm 1 m/s 749 mmHg 33%
18:00 +24°C° 0 mm 1 m/s 749 mmHg 39%
19:00 +23°C° 0 mm 1 m/s 749 mmHg 46%
20:00 +21°C° 0 mm 1 m/s 749 mmHg 48%
21:00 +19°C° 0 mm 1 m/s 748 mmHg 51%
22:00 +16°C° 0 mm 1 m/s 748 mmHg 54%
23:00 +15°C° 0 mm 2 m/s 748 mmHg 55%

29 Juillet, Jeudi

Heure Température Précipitation Vent Pression Humidité
00:00 +15°C° 0 mm 2 m/s 748 mmHg 57%
01:00 +14°C° 0 mm 2 m/s 748 mmHg 59%
02:00 +14°C° 0 mm 2 m/s 748 mmHg 61%
03:00 +13°C° 0 mm 2 m/s 748 mmHg 63%
04:00 +13°C° 0 mm 2 m/s 748 mmHg 65%
05:00 +15°C° 0 mm 2 m/s 748 mmHg 62%
06:00 +16°C° 0 mm 2 m/s 748 mmHg 59%
07:00 +18°C° 0 mm 3 m/s 748 mmHg 57%
08:00 +19°C° 0 mm 2 m/s 748 mmHg 54%
09:00 +21°C° 0 mm 2 m/s 748 mmHg 51%
10:00 +24°C° 0 mm 2 m/s 748 mmHg 49%
11:00 +26°C° 0 mm 2 m/s 748 mmHg 45%
12:00 +27°C° 0 mm 3 m/s 747 mmHg 42%
13:00 +29°C° 0 mm 3 m/s 747 mmHg 38%
14:00 +29°C° 0 mm 3 m/s 747 mmHg 38%
15:00 +29°C° 0 mm 3 m/s 746 mmHg 38%
16:00 +29°C° 0 mm 3 m/s 746 mmHg 37%
17:00 +28°C° 0 mm 3 m/s 746 mmHg 41%
18:00 +27°C° 0 mm 2 m/s 746 mmHg 44%
19:00 +25°C° 0 mm 2 m/s 746 mmHg 48%
20:00 +24°C° 0 mm 2 m/s 747 mmHg 52%
21:00 +22°C° 0 mm 1 m/s 747 mmHg 57%
22:00 +21°C° 0 mm 1 m/s 747 mmHg 61%
23:00 +21°C° 0 mm 1 m/s 747 mmHg 60%
Voir plus

Nous avons besoin de votre consentement

Meteoprog et ses fournisseurs de services peuvent stocker et accéder à des données personnelles telles que des cookies, des identifiants d'appareils ou d'autres technologies similaires sur votre appareil et traiter ces données pour personnaliser le contenu et les publicités, ainsi que pour fournir des fonctionnalités de médias sociaux et analyser le trafic.

  • Stocker et/ou accéder à des informations sur votre appareil

    Des cookies, des identifiants d'appareils ou d'autres informations peuvent être stockés ou accessibles sur votre appareil aux fins indiquées ci-dessus.

  • Annonces et contenus personnalisés, mesure des annonces et des contenus, connaissance de l'audience et développement de produits

    Les annonces et le contenu peuvent être personnalisés en fonction d'un profil. D'autres données peuvent être ajoutées pour mieux personnaliser les annonces et le contenu. Les performances des publicités et du contenu peuvent être mesurées. Il est possible d'obtenir des informations sur le public qui a vu les publicités et le contenu. Ces données peuvent être utilisées pour développer ou améliorer l'expérience de l'utilisateur, les systèmes et les logiciels.

En cliquant sur "J'accepte", vous autorisez l'utilisation de cookies, des identifiants d'appareils, des balises web ou d'autres technologies similaires. Vos paramètres peuvent être modifiés dans le navigateur de votre appareil.

Dans certains cas, des intérêts légitimes peuvent être invoqués plutôt qu'un consentement. Vous pouvez en savoir plus à ce sujet dans notre Politique de confidentialité et de cookies.